Location: Big Bend
(41.8409°N, 79.0042°W)
Time: 10:15:31
(UTC+00:00)

Envisat - Pass Details

Date: 06 October 2024
Orbit: 761 x 763 km, 98.3° (Epoch: 11 November)

Event Time Altitude Azimuth Distance (km) Brightness Sun altitude
Rises 07:34:29 0° 24° (NNE) 3,235 6.9 -40.5°
Reaches altitude 10° 07:37:06 10° 36° (NE) 2,304 6.1 -40.1°
Enters shadow 07:38:59 19° 52° (NE) 1,743 5.4 -39.9°
